User: anonymous   Login
Location: Unspecified
(0.0000°N, 0.0000°E)
Time: 09:21:16
(UTC+00:00)
Language:

UNK - Orbit

View from above orbital plane
View from above orbital plane
View from above satellite
View from above satellite

Ground track
Ground track

The orbit data is extracted from the following two-line orbital elements,

1 27945U 03042G   17327.37620892 +.00000055 +00000-0 +18937-4 0  9995
2 27945 097.9667 103.8977 0013492 102.7562 257.5150 14.64765371755905
Epoch (UTC): 23 November 2017 09:01:44
Eccentricity: 0.0013492
inclination: 97.9667°
perigee height: 668 km
apogee height: 687 km
right ascension of ascending node: 103.8977°
argument of perigee: 102.7562°
revolutions per day: 14.64765371
mean anomaly at epoch: 257.5150°
orbit number at epoch: 75590

The dashed part of the orbit path shows where the satellite is in the earth's shadow,  

DLR